EA1IDU Weather Reports


Display with metric or nautical units.
time (UTC)temp
F
wind
direction
speed
MPH
gust
MPH
rain 1hr
in
rain 24hr
in
rain mn
in
humidity
%
barometer
mb
20260906164545 0 277 6.0 9.0 0.00 0.00 0.00 1 1024.5
20260906163541 0 262 4.0 8.0 0.00 0.00 0.00 1 1024.5
20260906162535 0 263 4.0 9.0 0.00 0.00 0.00 1 1024.5
20260906161611 0 242 4.0 7.0 0.00 0.00 0.00 1 1024.4
20260906160545 0 265 4.0 11.0 0.00 0.00 0.00 1 1024.6
20260906155519 0 270 7.0 14.0 0.00 0.00 0.00 1 1024.6
20260906154635 0 268 1.0 4.0 0.00 0.00 0.00 1 1024.6
20260906153608 0 264 6.0 11.0 0.00 0.00 0.00 1 1024.5
20260906152603 0 268 3.0 9.0 0.00 0.00 0.00 1 1024.5
20260906151558 0 257 4.0 11.0 0.00 0.00 0.00 1 1024.7
20260906150553 0 257 2.0 7.0 0.00 0.00 0.00 1 1024.7
20260906145548 0 245 9.0 15.0 0.00 0.00 0.00 1 1024.8
20260906144542 0 250 10.0 17.0 0.00 0.00 0.00 1 1024.8
20260906143537 0 275 4.0 8.0 0.00 0.00 0.00 1 1024.8
20260906142531 0 264 5.0 9.0 0.00 0.00 0.00 1 1024.9
20260906141527 0 258 9.0 20.0 0.00 0.00 0.00 1 1024.9
20260906140541 0 255 5.0 11.0 0.00 0.00 0.00 1 1025.0
20260906135516 0 257 6.0 11.0 0.00 0.00 0.00 1 1025.0
20260906134611 0 250 8.0 13.0 0.00 0.00 0.00 1 1025.2
20260906133606 0 238 4.0 11.0 0.00 0.00 0.00 1 1025.1
20260906132600 0 255 5.0 13.0 0.00 0.00 0.00 1 1025.0
20260906131555 0 248 9.0 15.0 0.00 0.00 0.00 1 1025.1
20260906130550 0 248 7.0 11.0 0.00 0.00 0.00 1 1025.1
20260906125544 0 237 4.0 8.0 0.00 0.00 0.00 1 1025.1
20260906124539 0 250 7.0 11.0 0.00 0.00 0.00 1 1025.1
20260906123534 0 266 4.0 9.0 0.00 0.00 0.00 1 1025.3
20260906122528 0 242 8.0 11.0 0.00 0.00 0.00 1 1025.4
20260906121523 0 264 5.0 11.0 0.00 0.00 0.00 1 1025.3
20260906120518 0 270 9.0 13.0 0.00 0.00 0.00 1 1025.5
20260906115614 0 251 7.0 14.0 0.00 0.00 0.00 1 1025.4
20260906114608 0 249 4.0 9.0 0.00 0.00 0.00 1 1025.5
20260906113603 0 253 6.0 11.0 0.00 0.00 0.00 1 1025.4
20260906112558 0 261 6.0 11.0 0.00 0.00 0.00 1 1025.5
20260906111552 0 242 4.0 11.0 0.00 0.00 0.00 1 1025.5
20260906110547 0 244 6.0 13.0 0.00 0.00 0.00 1 1025.6
20260906105542 0 248 6.0 13.0 0.00 0.00 0.00 1 1025.8
20260906104538 0 251 6.0 11.0 0.00 0.00 0.00 1 1025.7
20260906103532 0 248 6.0 11.0 0.00 0.00 0.00 1 1025.8
20260906102526 0 257 3.0 6.0 0.00 0.00 0.00 1 1026.0
20260906101521 0 248 4.0 8.0 0.00 0.00 0.00 1 1025.9
20260906100615 0 253 3.0 7.0 0.00 0.00 0.00 1 1026.0
20260906095610 0 248 6.0 8.0 0.00 0.00 0.00 1 1026.0
20260906094625 0 263 4.0 7.0 0.00 0.00 0.00 1 1025.9
20260906093600 0 263 4.0 6.0 0.00 0.00 0.00 1 1026.0
20260906092556 0 270 4.0 6.0 0.00 0.00 0.00 1 1025.9
20260906091550 0 266 4.0 8.0 0.00 0.00 0.00 1 1025.8
20260906090544 0 260 3.0 8.0 0.00 0.00 0.00 1 1025.9
20260906085540 0 263 1.0 4.0 0.00 0.00 0.00 1 1025.9
20260906084534 0 0.0 2.0 0.00 0.00 0.00 1 1025.8
20260906083528 0 270 0.0 2.0 0.00 0.00 0.00 1 1025.9
20260906082523 0 0.0 0.0 0.00 0.00 0.00 1 1026.0
20260906081518 0 0.0 0.0 0.00 0.00 0.00 1 1025.9
20260906080613 0 0.0 0.0 0.00 0.00 0.00 1 1026.0
20260906075609 0 0.0 0.0 0.00 0.00 0.00 1 1026.0
20260906074603 0 0.0 0.0 0.00 0.00 0.00 1 1026.0
20260906073558 0 0.0 0.0 0.00 0.00 0.00 1 1025.7
20260906072552 0 270 0.0 2.0 0.00 0.00 0.00 1 1025.8
20260906071547 0 270 0.0 2.0 0.00 0.00 0.00 1 1025.7
20260906070603 0 0.0 2.0 0.00 0.00 0.00 1 1025.7
20260906065557 0 0.0 0.0 0.00 0.00 0.00 1 1025.8
20260906064532 0 0.0 0.0 0.00 0.00 0.00 1 1025.8
20260906063527 0 270 0.0 2.0 0.00 0.00 0.00 1 1025.5
20260906062521 0 0.0 2.0 0.00 0.00 0.00 1 1025.3
20260906061516 0 0.0 0.0 0.00 0.00 0.00 1 1025.3
20260906060611 0 0.0 2.0 0.00 0.00 0.00 1 1025.3
20260906055606 0 270 3.0 4.0 0.00 0.00 0.00 1 1025.2
20260906054559 0 270 1.0 2.0 0.00 0.00 0.00 1 1025.2
20260906053554 0 270 1.0 2.0 0.00 0.00 0.00 1 1025.2
20260906052550 0 270 1.0 4.0 0.00 0.00 0.00 1 1025.2
20260906051546 0 270 1.0 4.0 0.00 0.00 0.00 1 1025.2
20260906050539 0 270 0.0 2.0 0.00 0.00 0.00 1 1025.0
20260906045534 0 270 0.0 2.0 0.00 0.00 0.00 1 1025.0
20260906044529 0 270 0.0 2.0 0.00 0.00 0.00 1 1025.0
20260906043524 0 270 1.0 2.0 0.00 0.00 0.00 1 1025.0
20260906042518 0 270 1.0 4.0 0.00 0.00 0.00 1 1024.9
20260906041613 0 270 1.0 2.0 0.00 0.00 0.00 1 1024.9
20260906040628 0 270 1.0 4.0 0.00 0.00 0.00 1 1025.0
20260906035602 0 270 1.0 4.0 0.00 0.00 0.00 1 1025.1
20260906034557 0 0.0 0.0 0.00 0.00 0.00 1 1025.2
20260906033553 0 270 1.0 2.0 0.00 0.00 0.00 1 1025.2
20260906032548 0 270 2.0 4.0 0.00 0.00 0.00 1 1025.1
20260906031543 0 270 4.0 9.0 0.00 0.00 0.00 1 1025.3
20260906030536 0 0.0 0.0 0.00 0.00 0.00 1 1025.4
20260906025531 0 0.0 0.0 0.00 0.00 0.00 1 1025.3
20260906024527 0 270 1.0 2.0 0.00 0.00 0.00 1 1025.4
20260906023522 0 270 1.0 4.0 0.00 0.00 0.00 1 1025.4
20260906022517 0 270 0.0 2.0 0.00 0.00 0.00 1 1025.4
20260906021612 0 270 0.0 2.0 0.00 0.00 0.00 1 1025.7
20260906020606 0 0.0 0.0 0.00 0.00 0.00 1 1025.8
20260906015601 0 0.0 0.0 0.00 0.00 0.00 1 1025.8
20260906014555 0 270 0.0 2.0 0.00 0.00 0.00 1 1025.8
20260906013550 0 270 1.0 4.0 0.00 0.00 0.00 1 1025.9
20260906012606 0 270 2.0 6.0 0.00 0.00 0.00 1 1025.9
20260906011540 0 270 1.0 4.0 0.00 0.00 0.00 1 1026.1
20260906010536 0 270 0.0 2.0 0.00 0.00 0.00 1 1025.9
20260906005529 0 270 1.0 4.0 0.00 0.00 0.00 1 1025.7
20260906004524 0 270 1.0 2.0 0.00 0.00 0.00 1 1025.9
20260906003519 0 270 1.0 4.0 0.00 0.00 0.00 1 1026.2
20260906002614 0 270 3.0 6.0 0.00 0.00 0.00 1 1026.6
20260906001610 0 270 2.0 4.0 0.00 0.00 0.00 1 1026.2
20260906000604 0 270 3.0 4.0 0.00 0.00 0.00 1 1026.6
20260905235559 0 270 4.0 4.0 0.00 0.00 0.00 1 1026.3
20260905234554 0 270 1.0 4.0 0.00 0.00 0.00 1 1026.7
20260905233548 0 270 0.0 2.0 0.00 0.00 0.00 1 1026.7
20260905232543 0 0.0 0.0 0.00 0.00 0.00 1 1026.7
20260905231538 0 0.0 2.0 0.00 0.00 0.00 1 1026.7
20260905230532 0 270 0.0 2.0 0.00 0.00 0.00 1 1026.8
20260905225527 0 270 0.0 2.0 0.00 0.00 0.00 1 1026.8
20260905224521 0 0.0 0.0 0.00 0.00 0.00 1 1026.8
20260905223516 0 0.0 0.0 0.00 0.00 0.00 1 1026.6
20260905222611 0 270 0.0 2.0 0.00 0.00 0.00 1 1026.9
20260905221606 0 270 1.0 2.0 0.00 0.00 0.00 1 1026.8
20260905220602 0 270 1.0 2.0 0.00 0.00 0.00 1 1026.8
20260905215556 0 270 0.0 2.0 0.00 0.00 0.00 1 1026.9
20260905214552 0 0.0 0.0 0.00 0.00 0.00 1 1026.7
20260905213545 0 0.0 2.0 0.00 0.00 0.00 1 1026.5
20260905212540 0 0.0 0.0 0.00 0.00 0.00 1 1026.6
20260905211536 0 270 0.0 2.0 0.00 0.00 0.00 1 1026.6
20260905210530 0 270 2.0 4.0 0.00 0.00 0.00 1 1026.6
20260905205545 0 270 2.0 4.0 0.00 0.00 0.00 1 1026.6
20260905204520 0 270 0.0 2.0 0.00 0.00 0.00 1 1026.7
20260905203614 0 270 1.0 2.0 0.00 0.00 0.00 1 1026.7
20260905202609 0 270 1.0 2.0 0.00 0.00 0.00 1 1026.5
20260905201603 0 270 0.0 2.0 0.00 0.00 0.00 1 1026.5
20260905200558 0 270 1.0 2.0 0.00 0.00 0.00 1 1026.3
20260905195553 0 270 2.0 4.0 0.00 0.00 0.00 1 1026.4
20260905194607 0 270 1.0 2.0 0.00 0.00 0.00 1 1026.3
20260905193543 0 270 1.0 4.0 0.00 0.00 0.00 1 1026.1
20260905192537 0 270 3.0 4.0 0.00 0.00 0.00 1 1026.2
20260905191531 0 270 3.0 4.0 0.00 0.00 0.00 1 1026.2
20260905190607 0 270 2.0 4.0 0.00 0.00 0.00 1 1026.1
20260905185602 0 270 1.0 4.0 0.00 0.00 0.00 1 1026.1
20260905184537 0 270 1.0 4.0 0.00 0.00 0.00 1 1026.0
20260905183611 0 270 3.0 7.0 0.00 0.00 0.00 1 1025.9
20260905182606 0 270 4.0 11.0 0.00 0.00 0.00 1 1026.1
20260905181621 0 270 7.0 13.0 0.00 0.00 0.00 1 1026.0
20260905180557 0 270 9.0 16.0 0.00 0.00 0.00 1 1025.8
20260905175610 0 270 10.0 17.0 0.00 0.00 0.00 1 1025.5
20260905174606 0 270 18.0 31.0 0.00 0.00 0.00 1 1025.1
20260905173540 0 270 12.0 25.0 0.00 0.00 0.00 1 1026.0
20260905172535 0 270 10.0 24.0 0.00 0.00 0.00 1 1026.3
20260905171530 0 270 10.0 24.0 0.00 0.00 0.00 1 1026.2
20260905170525 0 270 10.0 16.0 0.00 0.00 0.00 1 1025.9
20260905165519 0 270 13.0 25.0 0.00 0.00 0.00 1 1025.9